Year,Month,Day,Hour,Minute,Value (Times are PST for temperature in C)
2008,07,11,00,00,11.60
2008,07,11,00,01,11.60
2008,07,11,00,02,11.60
2008,07,11,00,03,11.60
2008,07,11,00,04,11.60
2008,07,11,00,05,11.60
2008,07,11,00,06,11.60
2008,07,11,00,07,11.60
2008,07,11,00,08,11.60
2008,07,11,00,09,11.60
2008,07,11,00,10,11.60
2008,07,11,00,11,11.60
2008,07,11,00,12,11.60
2008,07,11,00,13,11.50
2008,07,11,00,14,11.40
2008,07,11,00,15,11.40
2008,07,11,00,16,11.40
2008,07,11,00,17,11.40
2008,07,11,00,18,11.40
2008,07,11,00,19,11.40
2008,07,11,00,20,11.40
2008,07,11,00,21,11.40
2008,07,11,00,22,11.40
2008,07,11,00,23,11.40
2008,07,11,00,24,11.40
2008,07,11,00,25,11.40
2008,07,11,00,26,11.40
2008,07,11,00,27,11.40
2008,07,11,00,28,11.40
2008,07,11,00,29,11.30
2008,07,11,00,30,11.30
2008,07,11,00,31,11.30
2008,07,11,00,32,11.30
2008,07,11,00,33,11.20
2008,07,11,00,34,11.20
2008,07,11,00,35,11.20
2008,07,11,00,36,11.20
2008,07,11,00,37,11.20
2008,07,11,00,38,11.20
2008,07,11,00,39,11.10
2008,07,11,00,40,11.10
2008,07,11,00,41,11.10
2008,07,11,00,42,11.10
2008,07,11,00,43,11.10
2008,07,11,00,44,11.10
2008,07,11,00,45,11.10
2008,07,11,00,46,11.10
2008,07,11,00,47,10.90
2008,07,11,00,48,10.90
2008,07,11,00,49,10.90
2008,07,11,00,50,10.90
2008,07,11,00,51,10.90
2008,07,11,00,52,10.90
2008,07,11,00,53,10.90
2008,07,11,00,54,10.90
2008,07,11,00,55,10.90
2008,07,11,00,56,10.90
2008,07,11,00,57,10.90
2008,07,11,00,58,10.90
2008,07,11,00,59,10.90
2008,07,11,01,00,10.80
2008,07,11,01,01,10.80
2008,07,11,01,02,10.80
2008,07,11,01,03,10.80
2008,07,11,01,04,10.80
2008,07,11,01,05,10.80
2008,07,11,01,06,10.70
2008,07,11,01,07,10.70
2008,07,11,01,08,10.70
2008,07,11,01,09,10.70
2008,07,11,01,10,10.70
2008,07,11,01,11,10.70
2008,07,11,01,12,10.70
2008,07,11,01,13,10.70
2008,07,11,01,14,10.70
2008,07,11,01,15,10.60
2008,07,11,01,16,10.60
2008,07,11,01,17,10.60
2008,07,11,01,18,10.60
2008,07,11,01,19,10.60
2008,07,11,01,20,10.60
2008,07,11,01,21,10.60
2008,07,11,01,22,10.60
2008,07,11,01,23,10.60
2008,07,11,01,24,10.60
2008,07,11,01,25,10.70
2008,07,11,01,26,10.70
2008,07,11,01,27,10.70
2008,07,11,01,28,10.80
2008,07,11,01,29,10.80
2008,07,11,01,30,10.80
2008,07,11,01,31,10.90
2008,07,11,01,32,10.90
2008,07,11,01,33,10.90
2008,07,11,01,34,10.90
2008,07,11,01,35,10.90
2008,07,11,01,36,10.90
2008,07,11,01,37,10.90
2008,07,11,01,38,10.90
2008,07,11,01,39,10.90
2008,07,11,01,40,10.90
2008,07,11,01,41,10.90
2008,07,11,01,42,10.90
2008,07,11,01,43,10.90
2008,07,11,01,44,10.90
2008,07,11,01,45,10.80
2008,07,11,01,46,10.80
2008,07,11,01,47,10.70
2008,07,11,01,48,10.70
2008,07,11,01,49,10.60
2008,07,11,01,50,10.60
2008,07,11,01,51,10.60
2008,07,11,01,52,10.60
2008,07,11,01,53,10.60
2008,07,11,01,54,10.60
2008,07,11,01,55,10.60
2008,07,11,01,56,10.60
2008,07,11,01,57,10.60
2008,07,11,01,58,10.60
2008,07,11,01,59,10.50
2008,07,11,02,00,10.40
2008,07,11,02,01,10.40
2008,07,11,02,02,10.40
2008,07,11,02,03,10.40
2008,07,11,02,04,10.40
2008,07,11,02,05,10.40
2008,07,11,02,06,10.40
2008,07,11,02,07,10.40
2008,07,11,02,08,10.40
2008,07,11,02,09,10.40
2008,07,11,02,10,10.30
2008,07,11,02,11,10.30
2008,07,11,02,12,10.30
2008,07,11,02,13,10.30
2008,07,11,02,14,10.30
2008,07,11,02,15,10.30
2008,07,11,02,16,10.30
2008,07,11,02,17,10.30
2008,07,11,02,18,10.20
2008,07,11,02,19,10.20
2008,07,11,02,20,10.20
2008,07,11,02,21,10.20
2008,07,11,02,22,10.20
2008,07,11,02,23,10.20
2008,07,11,02,24,10.10
2008,07,11,02,25,10.10
2008,07,11,02,26,10.10
2008,07,11,02,27,10.10
2008,07,11,02,28,10.10
2008,07,11,02,29,10.10
2008,07,11,02,30,10.10
2008,07,11,02,31,10.10
2008,07,11,02,32,10.10
2008,07,11,02,33,10.10
2008,07,11,02,34,10.10
2008,07,11,02,35,10.10
2008,07,11,02,36,10.10
2008,07,11,02,37,10.10
2008,07,11,02,38,10.00
2008,07,11,02,39,9.90
2008,07,11,02,40,9.90
2008,07,11,02,41,9.90
2008,07,11,02,42,9.90
2008,07,11,02,43,9.90
2008,07,11,02,44,9.90
2008,07,11,02,45,9.90
2008,07,11,02,46,9.90
2008,07,11,02,47,9.90
2008,07,11,02,48,9.90
2008,07,11,02,49,9.90
2008,07,11,02,50,9.80
2008,07,11,02,51,9.80
2008,07,11,02,52,9.80
2008,07,11,02,53,9.80
2008,07,11,02,54,9.80
2008,07,11,02,55,9.80
2008,07,11,02,56,9.80
2008,07,11,02,57,9.80
2008,07,11,02,58,9.80
2008,07,11,02,59,9.80
2008,07,11,03,00,9.80
2008,07,11,03,01,9.80
2008,07,11,03,02,9.80
2008,07,11,03,03,9.80
2008,07,11,03,04,9.80
2008,07,11,03,05,9.80
2008,07,11,03,06,9.80
2008,07,11,03,07,9.80
2008,07,11,03,08,9.80
2008,07,11,03,09,9.70
2008,07,11,03,10,9.70
2008,07,11,03,11,9.70
2008,07,11,03,12,9.70
2008,07,11,03,13,9.70
2008,07,11,03,14,9.70
2008,07,11,03,15,9.70
2008,07,11,03,16,9.70
2008,07,11,03,17,9.70
2008,07,11,03,18,9.70
2008,07,11,03,19,9.70
2008,07,11,03,20,9.70
2008,07,11,03,21,9.70
2008,07,11,03,22,9.70
2008,07,11,03,23,9.70
2008,07,11,03,24,9.70
2008,07,11,03,25,9.60
2008,07,11,03,26,9.60
2008,07,11,03,27,9.60
2008,07,11,03,28,9.60
2008,07,11,03,29,9.50
2008,07,11,03,30,9.50
2008,07,11,03,31,9.50
2008,07,11,03,32,9.50
2008,07,11,03,33,9.50
2008,07,11,03,34,9.50
2008,07,11,03,35,9.50
2008,07,11,03,36,9.50
2008,07,11,03,37,9.60
2008,07,11,03,38,9.60
2008,07,11,03,39,9.60
2008,07,11,03,40,9.60
2008,07,11,03,41,9.60
2008,07,11,03,42,9.60
2008,07,11,03,43,9.60
2008,07,11,03,44,9.60
2008,07,11,03,45,9.60
2008,07,11,03,46,9.60
2008,07,11,03,47,9.60
2008,07,11,03,48,9.60
2008,07,11,03,49,9.60
2008,07,11,03,50,9.60
2008,07,11,03,51,9.60
2008,07,11,03,52,9.60
2008,07,11,03,53,9.60
2008,07,11,03,54,9.60
2008,07,11,03,55,9.60
2008,07,11,03,56,9.60
2008,07,11,03,57,9.50
2008,07,11,03,58,9.50
2008,07,11,03,59,9.50
2008,07,11,04,00,9.50
2008,07,11,04,01,9.50
2008,07,11,04,02,9.50
2008,07,11,04,03,9.50
2008,07,11,04,04,9.50
2008,07,11,04,05,9.50
2008,07,11,04,06,9.50
2008,07,11,04,07,9.50
2008,07,11,04,08,9.50
2008,07,11,04,09,9.50
2008,07,11,04,10,9.40
2008,07,11,04,11,9.40
2008,07,11,04,12,9.50
2008,07,11,04,13,9.50
2008,07,11,04,14,9.50
2008,07,11,04,15,9.50
2008,07,11,04,16,9.50
2008,07,11,04,17,9.50
2008,07,11,04,18,9.50
2008,07,11,04,19,9.50
2008,07,11,04,20,9.50
2008,07,11,04,21,9.50
2008,07,11,04,22,9.50
2008,07,11,04,23,9.50
2008,07,11,04,24,9.50
2008,07,11,04,25,9.50
2008,07,11,04,26,9.50
2008,07,11,04,27,9.50
2008,07,11,04,28,9.50
2008,07,11,04,29,9.50
2008,07,11,04,30,9.50
2008,07,11,04,31,9.60
2008,07,11,04,32,9.60
2008,07,11,04,33,9.60
2008,07,11,04,34,9.60
2008,07,11,04,35,9.60
2008,07,11,04,36,9.60
2008,07,11,04,37,9.60
2008,07,11,04,38,9.70
2008,07,11,04,39,9.70
2008,07,11,04,40,9.70
2008,07,11,04,41,9.70
2008,07,11,04,42,9.70
2008,07,11,04,43,9.70
2008,07,11,04,44,9.70
2008,07,11,04,45,9.70
2008,07,11,04,46,9.70
2008,07,11,04,47,9.70
2008,07,11,04,48,9.70
2008,07,11,04,49,9.70
2008,07,11,04,50,9.70
2008,07,11,04,51,9.70
2008,07,11,04,52,9.70
2008,07,11,04,53,9.70
2008,07,11,04,54,9.70
2008,07,11,04,55,9.70
2008,07,11,04,56,9.70
2008,07,11,04,57,9.70
2008,07,11,04,58,9.70
2008,07,11,04,59,9.70
2008,07,11,05,00,9.70
2008,07,11,05,01,9.80
2008,07,11,05,02,9.80
2008,07,11,05,03,9.80
2008,07,11,05,04,9.80
2008,07,11,05,05,9.70
2008,07,11,05,06,9.70
2008,07,11,05,07,9.70
2008,07,11,05,08,9.70
2008,07,11,05,09,9.70
2008,07,11,05,10,9.70
2008,07,11,05,11,9.60
2008,07,11,05,12,9.60
2008,07,11,05,13,9.60
2008,07,11,05,14,9.60
2008,07,11,05,15,9.50
2008,07,11,05,16,9.50
2008,07,11,05,17,9.50
2008,07,11,05,18,9.50
2008,07,11,05,19,9.50
2008,07,11,05,20,9.40
2008,07,11,05,21,9.40
2008,07,11,05,22,9.40
2008,07,11,05,23,9.30
2008,07,11,05,24,9.30
2008,07,11,05,25,9.30
2008,07,11,05,26,9.30
2008,07,11,05,27,9.30
2008,07,11,05,28,9.30
2008,07,11,05,29,9.30
2008,07,11,05,30,9.40
2008,07,11,05,31,9.40
2008,07,11,05,32,9.40
2008,07,11,05,33,9.50
2008,07,11,05,34,9.50
2008,07,11,05,35,9.60
2008,07,11,05,36,9.60
2008,07,11,05,37,9.60
2008,07,11,05,38,9.60
2008,07,11,05,39,9.60
2008,07,11,05,40,9.50
2008,07,11,05,41,9.50
2008,07,11,05,42,9.50
2008,07,11,05,43,9.40
2008,07,11,05,44,9.40
2008,07,11,05,45,9.40
2008,07,11,05,46,9.40
2008,07,11,05,47,9.40
2008,07,11,05,48,9.40
2008,07,11,05,49,9.50
2008,07,11,05,50,9.40
2008,07,11,05,51,9.40
2008,07,11,05,52,9.40
2008,07,11,05,53,9.40
2008,07,11,05,54,9.40
2008,07,11,05,55,9.50
2008,07,11,05,56,9.50
2008,07,11,05,57,9.50
2008,07,11,05,58,9.50
2008,07,11,05,59,9.50
2008,07,11,06,00,9.50
2008,07,11,06,01,9.60
2008,07,11,06,02,9.60
2008,07,11,06,03,9.70
2008,07,11,06,04,9.70
2008,07,11,06,05,9.70
2008,07,11,06,06,9.70
2008,07,11,06,07,9.80
2008,07,11,06,08,9.80
2008,07,11,06,09,9.80
2008,07,11,06,10,9.80
2008,07,11,06,11,9.80
2008,07,11,06,12,9.80
2008,07,11,06,13,9.80
2008,07,11,06,14,9.80
2008,07,11,06,15,9.80
2008,07,11,06,16,9.80
2008,07,11,06,17,9.80
2008,07,11,06,18,9.80
2008,07,11,06,19,9.80
2008,07,11,06,20,9.80
2008,07,11,06,21,9.80
2008,07,11,06,22,9.80
2008,07,11,06,23,9.90
2008,07,11,06,24,9.90
2008,07,11,06,25,9.90
2008,07,11,06,26,9.90
2008,07,11,06,27,9.90
2008,07,11,06,28,9.90
2008,07,11,06,29,9.90
2008,07,11,06,30,9.90
2008,07,11,06,31,9.90
2008,07,11,06,32,9.90
2008,07,11,06,33,9.90
2008,07,11,06,34,9.90
2008,07,11,06,35,9.90
2008,07,11,06,36,9.90
2008,07,11,06,37,9.90
2008,07,11,06,38,9.90
2008,07,11,06,39,9.90
2008,07,11,06,40,9.90
2008,07,11,06,41,9.90
2008,07,11,06,42,9.90
2008,07,11,06,43,9.90
2008,07,11,06,44,9.90
2008,07,11,06,45,10.00
2008,07,11,06,46,10.10
2008,07,11,06,47,10.10
2008,07,11,06,48,10.10
2008,07,11,06,49,10.10
2008,07,11,06,50,10.10
2008,07,11,06,51,10.10
2008,07,11,06,52,10.10
2008,07,11,06,53,10.10
2008,07,11,06,54,10.10
2008,07,11,06,55,10.10
2008,07,11,06,56,10.10
2008,07,11,06,57,10.10
2008,07,11,06,58,10.10
2008,07,11,06,59,10.10
2008,07,11,07,00,10.10
2008,07,11,07,01,10.10
2008,07,11,07,02,10.20
2008,07,11,07,03,10.20
2008,07,11,07,04,10.20
2008,07,11,07,05,10.20
2008,07,11,07,06,10.20
2008,07,11,07,07,10.20
2008,07,11,07,08,10.20
2008,07,11,07,09,10.20
2008,07,11,07,10,10.30
2008,07,11,07,11,10.30
2008,07,11,07,12,10.40
2008,07,11,07,13,10.40
2008,07,11,07,14,10.40
2008,07,11,07,15,10.40
2008,07,11,07,16,10.50
2008,07,11,07,17,10.60
2008,07,11,07,18,10.60
2008,07,11,07,19,10.60
2008,07,11,07,20,10.60
2008,07,11,07,21,10.70
2008,07,11,07,22,10.80
2008,07,11,07,23,10.90
2008,07,11,07,24,11.00
2008,07,11,07,25,11.10
2008,07,11,07,26,11.10
2008,07,11,07,27,11.10
2008,07,11,07,28,11.20
2008,07,11,07,29,11.20
2008,07,11,07,30,11.30
2008,07,11,07,31,11.30
2008,07,11,07,32,11.40
2008,07,11,07,33,11.40
2008,07,11,07,34,11.50
2008,07,11,07,35,11.60
2008,07,11,07,36,11.60
2008,07,11,07,37,11.60
2008,07,11,07,38,11.70
2008,07,11,07,39,11.80
2008,07,11,07,40,11.80
2008,07,11,07,41,11.80
2008,07,11,07,42,11.80
2008,07,11,07,43,11.80
2008,07,11,07,44,11.80
2008,07,11,07,45,11.90
2008,07,11,07,46,12.00
2008,07,11,07,47,12.00
2008,07,11,07,48,12.10
2008,07,11,07,49,12.20
2008,07,11,07,50,12.20
2008,07,11,07,51,12.30
2008,07,11,07,52,12.30
2008,07,11,07,53,12.40
2008,07,11,07,54,12.40
2008,07,11,07,55,12.50
2008,07,11,07,56,12.50
2008,07,11,07,57,12.60
2008,07,11,07,58,12.70
2008,07,11,07,59,12.70
2008,07,11,08,00,12.80
2008,07,11,08,01,12.80
2008,07,11,08,02,12.80
2008,07,11,08,03,12.90
2008,07,11,08,04,13.00
2008,07,11,08,05,13.10
2008,07,11,08,06,13.10
2008,07,11,08,07,13.30
2008,07,11,08,08,13.30
2008,07,11,08,09,13.50
2008,07,11,08,10,13.60
2008,07,11,08,11,13.70
2008,07,11,08,12,13.70
2008,07,11,08,13,13.90
2008,07,11,08,14,13.90
2008,07,11,08,15,14.00
2008,07,11,08,16,14.10
2008,07,11,08,17,14.20
2008,07,11,08,18,14.30
2008,07,11,08,19,14.40
2008,07,11,08,20,14.40
2008,07,11,08,21,14.50
2008,07,11,08,22,14.50
2008,07,11,08,23,14.50
2008,07,11,08,24,14.60
2008,07,11,08,25,14.60
2008,07,11,08,26,14.60
2008,07,11,08,27,14.70
2008,07,11,08,28,14.70
2008,07,11,08,29,14.80
2008,07,11,08,30,14.80
2008,07,11,08,31,14.80
2008,07,11,08,32,14.80
2008,07,11,08,33,14.80
2008,07,11,08,34,14.80
2008,07,11,08,35,14.80
2008,07,11,08,36,14.90
2008,07,11,08,37,14.90
2008,07,11,08,38,14.90
2008,07,11,08,39,14.90
2008,07,11,08,40,15.00
2008,07,11,08,41,15.00
2008,07,11,08,42,15.00
2008,07,11,08,43,15.10
2008,07,11,08,44,15.10
2008,07,11,08,45,15.20
2008,07,11,08,46,15.20
2008,07,11,08,47,15.20
2008,07,11,08,48,15.30
2008,07,11,08,49,15.30
2008,07,11,08,50,15.30
2008,07,11,08,51,15.30
2008,07,11,08,52,15.40
2008,07,11,08,53,15.40
2008,07,11,08,54,15.50
2008,07,11,08,55,15.50
2008,07,11,08,56,15.50
2008,07,11,08,57,15.50
2008,07,11,08,58,15.50
2008,07,11,08,59,15.50
2008,07,11,09,00,15.50
2008,07,11,09,01,15.60
2008,07,11,09,02,15.60
2008,07,11,09,03,15.60
2008,07,11,09,04,15.60
2008,07,11,09,05,15.60
2008,07,11,09,06,15.60
2008,07,11,09,07,15.60
2008,07,11,09,08,15.50
2008,07,11,09,09,15.50
2008,07,11,09,10,15.50
2008,07,11,09,11,15.50
2008,07,11,09,12,15.50
2008,07,11,09,13,15.50
2008,07,11,09,14,15.50
2008,07,11,09,15,15.50
2008,07,11,09,16,15.50
2008,07,11,09,17,15.50
2008,07,11,09,18,15.50
2008,07,11,09,19,15.50
2008,07,11,09,20,15.50
2008,07,11,09,21,15.60
2008,07,11,09,22,15.60
2008,07,11,09,23,15.60
2008,07,11,09,24,15.70
2008,07,11,09,25,15.70
2008,07,11,09,26,15.60
2008,07,11,09,27,15.60
2008,07,11,09,28,15.50
2008,07,11,09,29,15.50
2008,07,11,09,30,15.60
2008,07,11,09,31,15.60
2008,07,11,09,32,15.60
2008,07,11,09,33,15.60
2008,07,11,09,34,15.60
2008,07,11,09,35,15.60
2008,07,11,09,36,15.60
2008,07,11,09,37,15.60
2008,07,11,09,38,15.60
2008,07,11,09,39,15.80
2008,07,11,09,40,15.90
2008,07,11,09,41,15.90
2008,07,11,09,42,16.00
2008,07,11,09,43,15.90
2008,07,11,09,44,15.90
2008,07,11,09,45,15.90
2008,07,11,09,46,16.00
2008,07,11,09,47,16.10
2008,07,11,09,48,16.10
2008,07,11,09,49,16.10
2008,07,11,09,50,16.10
2008,07,11,09,51,16.10
2008,07,11,09,52,16.10
2008,07,11,09,53,16.10
2008,07,11,09,54,16.10
2008,07,11,09,55,16.10
2008,07,11,09,56,16.10
2008,07,11,09,57,16.10
2008,07,11,09,58,15.90
2008,07,11,09,59,15.90
2008,07,11,10,00,16.00
2008,07,11,10,01,16.10
2008,07,11,10,02,16.10
2008,07,11,10,03,16.10
2008,07,11,10,04,16.10
2008,07,11,10,05,16.20
2008,07,11,10,06,16.20
2008,07,11,10,07,16.20
2008,07,11,10,08,16.20
2008,07,11,10,09,16.20
2008,07,11,10,10,16.20
2008,07,11,10,11,16.30
2008,07,11,10,12,16.30
2008,07,11,10,13,16.40
2008,07,11,10,14,16.50
2008,07,11,10,15,16.60
2008,07,11,10,16,16.60
2008,07,11,10,17,16.60
2008,07,11,10,18,16.60
2008,07,11,10,19,16.60
2008,07,11,10,20,16.60
2008,07,11,10,21,16.60
2008,07,11,10,22,16.70
2008,07,11,10,23,16.70
2008,07,11,10,24,16.70
2008,07,11,10,25,16.70
2008,07,11,10,26,16.60
2008,07,11,10,27,16.60
2008,07,11,10,28,16.50
2008,07,11,10,29,16.40
2008,07,11,10,30,16.40
2008,07,11,10,31,16.50
2008,07,11,10,32,16.60
2008,07,11,10,33,16.70
2008,07,11,10,34,16.70
2008,07,11,10,35,16.70
2008,07,11,10,36,16.70
2008,07,11,10,37,16.70
2008,07,11,10,38,16.80
2008,07,11,10,39,16.90
2008,07,11,10,40,17.00
2008,07,11,10,41,17.00
2008,07,11,10,42,17.00
2008,07,11,10,43,16.90
2008,07,11,10,44,16.80
2008,07,11,10,45,16.80
2008,07,11,10,46,16.80
2008,07,11,10,47,16.90
2008,07,11,10,48,17.00
2008,07,11,10,49,17.10
2008,07,11,10,50,17.10
2008,07,11,10,51,17.10
2008,07,11,10,52,17.10
2008,07,11,10,53,17.10
2008,07,11,10,54,17.10
2008,07,11,10,55,17.20
2008,07,11,10,56,17.20
2008,07,11,10,57,17.30
2008,07,11,10,58,17.30
2008,07,11,10,59,17.40
2008,07,11,11,00,17.40
2008,07,11,11,01,17.50
2008,07,11,11,02,17.50
2008,07,11,11,03,17.50
2008,07,11,11,04,17.50
2008,07,11,11,05,17.50
2008,07,11,11,06,17.40
2008,07,11,11,07,17.30
2008,07,11,11,08,17.30
2008,07,11,11,09,17.20
2008,07,11,11,10,17.10
2008,07,11,11,11,17.00
2008,07,11,11,12,17.00
2008,07,11,11,13,17.00
2008,07,11,11,14,17.00
2008,07,11,11,15,17.00
2008,07,11,11,16,17.00
2008,07,11,11,17,17.00
2008,07,11,11,18,17.00
2008,07,11,11,19,17.10
2008,07,11,11,20,17.20
2008,07,11,11,21,17.20
2008,07,11,11,22,17.30
2008,07,11,11,23,17.40
2008,07,11,11,24,17.50
2008,07,11,11,25,17.60
2008,07,11,11,26,17.60
2008,07,11,11,27,17.60
2008,07,11,11,28,17.60
2008,07,11,11,29,17.70
2008,07,11,11,30,17.70
2008,07,11,11,31,17.90
2008,07,11,11,32,17.90
2008,07,11,11,33,18.00
2008,07,11,11,34,18.10
2008,07,11,11,35,18.10
2008,07,11,11,36,18.20
2008,07,11,11,37,18.20
2008,07,11,11,38,18.20
2008,07,11,11,39,18.20
2008,07,11,11,40,18.10
2008,07,11,11,41,18.00
2008,07,11,11,42,17.90
2008,07,11,11,43,17.90
2008,07,11,11,44,17.90
2008,07,11,11,45,17.90
2008,07,11,11,46,17.90
2008,07,11,11,47,17.90
2008,07,11,11,48,18.00
2008,07,11,11,49,18.10
2008,07,11,11,50,18.20
2008,07,11,11,51,18.30
2008,07,11,11,52,18.30
2008,07,11,11,53,18.30
2008,07,11,11,54,18.30
2008,07,11,11,55,18.30
2008,07,11,11,56,18.30
2008,07,11,11,57,18.20
2008,07,11,11,58,18.20
2008,07,11,11,59,18.20
2008,07,11,12,00,18.20
2008,07,11,12,01,18.20
2008,07,11,12,02,18.30
2008,07,11,12,03,18.40
2008,07,11,12,04,18.60
2008,07,11,12,05,18.80
2008,07,11,12,06,18.90
2008,07,11,12,07,19.00
2008,07,11,12,08,19.10
2008,07,11,12,09,19.10
2008,07,11,12,10,19.10
2008,07,11,12,11,19.10
2008,07,11,12,12,19.10
2008,07,11,12,13,19.10
2008,07,11,12,14,19.10
2008,07,11,12,15,19.10
2008,07,11,12,16,19.10
2008,07,11,12,17,19.00
2008,07,11,12,18,18.90
2008,07,11,12,19,18.90
2008,07,11,12,20,18.90
2008,07,11,12,21,18.90
2008,07,11,12,22,18.80
2008,07,11,12,23,18.80
2008,07,11,12,24,18.80
2008,07,11,12,25,18.70
2008,07,11,12,26,18.80
2008,07,11,12,27,18.80
2008,07,11,12,28,18.80
2008,07,11,12,29,18.80
2008,07,11,12,30,18.80
2008,07,11,12,31,18.80
2008,07,11,12,32,18.90
2008,07,11,12,33,18.90
2008,07,11,12,34,19.00
2008,07,11,12,35,19.20
2008,07,11,12,36,19.40
2008,07,11,12,37,19.40
2008,07,11,12,38,19.40
2008,07,11,12,39,19.40
2008,07,11,12,40,19.30
2008,07,11,12,41,19.20
2008,07,11,12,42,19.10
2008,07,11,12,43,19.10
2008,07,11,12,44,19.10
2008,07,11,12,45,19.10
2008,07,11,12,46,19.10
2008,07,11,12,47,19.10
2008,07,11,12,48,19.20
2008,07,11,12,49,19.20
2008,07,11,12,50,19.30
2008,07,11,12,51,19.40
2008,07,11,12,52,19.40
2008,07,11,12,53,19.50
2008,07,11,12,54,19.50
2008,07,11,12,55,19.50
2008,07,11,12,56,19.50
2008,07,11,12,57,19.60
2008,07,11,12,58,19.60
2008,07,11,12,59,19.70
2008,07,11,13,00,19.80
2008,07,11,13,01,19.80
2008,07,11,13,02,19.80
2008,07,11,13,03,19.80
2008,07,11,13,04,19.80
2008,07,11,13,05,19.80
2008,07,11,13,06,19.90
2008,07,11,13,07,19.90
2008,07,11,13,08,20.10
2008,07,11,13,09,20.20
2008,07,11,13,10,20.40
2008,07,11,13,11,20.50
2008,07,11,13,12,20.60
2008,07,11,13,13,20.60
2008,07,11,13,14,20.70
2008,07,11,13,15,20.60
2008,07,11,13,16,20.60
2008,07,11,13,17,20.50
2008,07,11,13,18,20.40
2008,07,11,13,19,20.40
2008,07,11,13,20,20.40
2008,07,11,13,21,20.40
2008,07,11,13,22,20.40
2008,07,11,13,23,20.40
2008,07,11,13,24,20.50
2008,07,11,13,25,20.50
2008,07,11,13,26,20.50
2008,07,11,13,27,20.40
2008,07,11,13,28,20.40
2008,07,11,13,29,20.50
2008,07,11,13,30,20.70
2008,07,11,13,31,20.70
2008,07,11,13,32,20.80
2008,07,11,13,33,20.80
2008,07,11,13,34,20.70
2008,07,11,13,35,20.70
2008,07,11,13,36,20.70
2008,07,11,13,37,20.60
2008,07,11,13,38,20.50
2008,07,11,13,39,20.40
2008,07,11,13,40,20.50
2008,07,11,13,41,20.40
2008,07,11,13,42,20.30
2008,07,11,13,43,20.30
2008,07,11,13,44,20.40
2008,07,11,13,45,20.50
2008,07,11,13,46,20.50
2008,07,11,13,47,20.50
2008,07,11,13,48,20.40
2008,07,11,13,49,20.40
2008,07,11,13,50,20.40
2008,07,11,13,51,20.40
2008,07,11,13,52,20.40
2008,07,11,13,53,20.50
2008,07,11,13,54,20.60
2008,07,11,13,55,20.70
2008,07,11,13,56,20.70
2008,07,11,13,57,20.70
2008,07,11,13,58,20.60
2008,07,11,13,59,20.70
2008,07,11,14,00,20.80
2008,07,11,14,01,20.80
2008,07,11,14,02,20.80
2008,07,11,14,03,20.80
2008,07,11,14,04,20.80
2008,07,11,14,05,20.90
2008,07,11,14,06,20.90
2008,07,11,14,07,20.90
2008,07,11,14,08,20.90
2008,07,11,14,09,20.90
2008,07,11,14,10,20.80
2008,07,11,14,11,20.80
2008,07,11,14,12,20.80
2008,07,11,14,13,20.80
2008,07,11,14,14,20.90
2008,07,11,14,15,21.00
2008,07,11,14,16,21.00
2008,07,11,14,17,21.00
2008,07,11,14,18,21.00
2008,07,11,14,19,21.10
2008,07,11,14,20,21.20
2008,07,11,14,21,21.30
2008,07,11,14,22,21.30
2008,07,11,14,23,21.40
2008,07,11,14,24,21.50
2008,07,11,14,25,21.60
2008,07,11,14,26,21.60
2008,07,11,14,27,21.70
2008,07,11,14,28,21.70
2008,07,11,14,29,21.90
2008,07,11,14,30,22.00
2008,07,11,14,31,22.00
2008,07,11,14,32,21.90
2008,07,11,14,33,21.90
2008,07,11,14,34,21.80
2008,07,11,14,35,21.80
2008,07,11,14,36,21.80
2008,07,11,14,37,21.80
2008,07,11,14,38,21.80
2008,07,11,14,39,21.80
2008,07,11,14,40,22.00
2008,07,11,14,41,22.10
2008,07,11,14,42,22.10
2008,07,11,14,43,22.10
2008,07,11,14,44,22.10
2008,07,11,14,45,22.10
2008,07,11,14,46,22.00
2008,07,11,14,47,21.90
2008,07,11,14,48,21.90
2008,07,11,14,49,21.90
2008,07,11,14,50,21.80
2008,07,11,14,51,21.80
2008,07,11,14,52,21.80
2008,07,11,14,53,21.90
2008,07,11,14,54,22.00
2008,07,11,14,55,22.20
2008,07,11,14,56,22.30
2008,07,11,14,57,22.40
2008,07,11,14,58,22.30
2008,07,11,14,59,22.30
2008,07,11,15,00,22.30
2008,07,11,15,01,22.30
2008,07,11,15,02,22.30
2008,07,11,15,03,22.40
2008,07,11,15,04,22.40
2008,07,11,15,05,22.50
2008,07,11,15,06,22.50
2008,07,11,15,07,22.50
2008,07,11,15,08,22.60
2008,07,11,15,09,22.60
2008,07,11,15,10,22.60
2008,07,11,15,11,22.60
2008,07,11,15,12,22.60
2008,07,11,15,13,22.70
2008,07,11,15,14,22.70
2008,07,11,15,15,22.70
2008,07,11,15,16,22.60
2008,07,11,15,17,22.60
2008,07,11,15,18,22.60
2008,07,11,15,19,22.80
2008,07,11,15,20,22.80
2008,07,11,15,21,22.80
2008,07,11,15,22,22.80
2008,07,11,15,23,22.80
2008,07,11,15,24,22.80
2008,07,11,15,25,22.90
2008,07,11,15,26,23.00
2008,07,11,15,27,23.20
2008,07,11,15,28,23.30
2008,07,11,15,29,23.30
2008,07,11,15,30,23.30
2008,07,11,15,31,23.30
2008,07,11,15,32,23.30
2008,07,11,15,33,23.30
2008,07,11,15,34,23.30
2008,07,11,15,35,23.30
2008,07,11,15,36,23.30
2008,07,11,15,37,23.20
2008,07,11,15,38,23.00
2008,07,11,15,39,22.80
2008,07,11,15,40,22.70
2008,07,11,15,41,22.70
2008,07,11,15,42,22.70
2008,07,11,15,43,22.80
2008,07,11,15,44,22.80
2008,07,11,15,45,22.80
2008,07,11,15,46,22.80
2008,07,11,15,47,22.70
2008,07,11,15,48,22.70
2008,07,11,15,49,22.70
2008,07,11,15,50,22.70
2008,07,11,15,51,22.80
2008,07,11,15,52,22.80
2008,07,11,15,53,22.70
2008,07,11,15,54,22.70
2008,07,11,15,55,22.60
2008,07,11,15,56,22.70
2008,07,11,15,57,22.70
2008,07,11,15,58,22.80
2008,07,11,15,59,22.90
2008,07,11,16,00,22.90
2008,07,11,16,01,23.00
2008,07,11,16,02,23.20
2008,07,11,16,03,23.30
2008,07,11,16,04,23.30
2008,07,11,16,05,23.30
2008,07,11,16,06,23.30
2008,07,11,16,07,23.30
2008,07,11,16,08,23.30
2008,07,11,16,09,23.30
2008,07,11,16,10,23.20
2008,07,11,16,11,23.10
2008,07,11,16,12,23.10
2008,07,11,16,13,23.10
2008,07,11,16,14,23.20
2008,07,11,16,15,23.20
2008,07,11,16,16,23.30
2008,07,11,16,17,23.20
2008,07,11,16,18,23.30
2008,07,11,16,19,23.20
2008,07,11,16,20,23.20
2008,07,11,16,21,23.20
2008,07,11,16,22,23.30
2008,07,11,16,23,23.30
2008,07,11,16,24,23.20
2008,07,11,16,25,23.20
2008,07,11,16,26,23.30
2008,07,11,16,27,23.30
2008,07,11,16,28,23.20
2008,07,11,16,29,23.10
2008,07,11,16,30,23.10
2008,07,11,16,31,23.10
2008,07,11,16,32,23.10
2008,07,11,16,33,23.20
2008,07,11,16,34,23.20
2008,07,11,16,35,23.30
2008,07,11,16,36,23.30
2008,07,11,16,37,23.30
2008,07,11,16,38,23.30
2008,07,11,16,39,23.30
2008,07,11,16,40,23.30
2008,07,11,16,41,23.20
2008,07,11,16,42,23.20
2008,07,11,16,43,23.10
2008,07,11,16,44,23.10
2008,07,11,16,45,23.10
2008,07,11,16,46,23.10
2008,07,11,16,47,23.20
2008,07,11,16,48,23.20
2008,07,11,16,49,23.30
2008,07,11,16,50,23.30
2008,07,11,16,51,23.30
2008,07,11,16,52,23.30
2008,07,11,16,53,23.30
2008,07,11,16,54,23.30
2008,07,11,16,55,23.30
2008,07,11,16,56,23.10
2008,07,11,16,57,23.10
2008,07,11,16,58,23.00
2008,07,11,16,59,22.90
2008,07,11,17,00,22.90
2008,07,11,17,01,22.90
2008,07,11,17,02,22.90
2008,07,11,17,03,22.90
2008,07,11,17,04,22.90
2008,07,11,17,05,22.90
2008,07,11,17,06,22.90
2008,07,11,17,07,22.90
2008,07,11,17,08,23.00
2008,07,11,17,09,23.10
2008,07,11,17,10,23.10
2008,07,11,17,11,23.10
2008,07,11,17,12,23.20
2008,07,11,17,13,23.30
2008,07,11,17,14,23.40
2008,07,11,17,15,23.50
2008,07,11,17,16,23.60
2008,07,11,17,17,23.70
2008,07,11,17,18,23.70
2008,07,11,17,19,23.80
2008,07,11,17,20,23.80
2008,07,11,17,21,23.90
2008,07,11,17,22,23.90
2008,07,11,17,23,23.90
2008,07,11,17,24,24.00
2008,07,11,17,25,23.90
2008,07,11,17,26,23.90
2008,07,11,17,27,23.80
2008,07,11,17,28,23.80
2008,07,11,17,29,23.70
2008,07,11,17,30,23.70